Lid_Strength_Index
3 3 3 3 3 5 5 1 5 -0 -0 5 4 6 6 8 6 5 6 6 7 8 8 8 8 9 9 9 8 8 7 8 10 9 9 8 8 8 8 11 12 10 12 13
3 3 3 3 4 4 1 3 3 -0 1 7 6 6 6 6 6 6 6 7 6 6 8 9 9 10 10 9 9 8 7 9 12 11 9 9 9 9 8 8 9 11 13 12
3 3 3 3 4 4 1 3 6 3 2 3 6 7 7 7 6 7 6 6 6 7 8 6 8 10 10 8 8 9 8 9 10 12 11 9 10 10 10 9 11 10 10 13
2 3 3 3 4 4 1 3 6 5 6 6 6 6 7 8 8 6 6 7 7 7 9 8 8 8 8 7 7 8 7 10 9 11 11 11 11 12 11 10 9 11 10 10
2 2 3 3 4 4 1 4 4 4 5 6 6 7 7 8 8 7 8 8 8 8 8 8 9 8 7 8 7 7 7 11 9 12 11 11 12 12 11 11 11 11 10 11
3 2 2 2 3 2 2 1 1 2 6 6 6 7 7 8 7 7 6 7 7 7 8 7 6 6 7 6 7 8 8 9 11 13 11 11 13 13 12 12 10 10 11 11
2 2 2 2 3 3 1 2 2 4 7 6 7 6 6 6 7 7 6 5 6 6 4 4 4 4 5 6 6 6 8 9 9 12 11 16 12 10 11 11 11 11 11 11
2 2 2 1 2 2 1 1 2 3 7 5 6 6 6 5 5 6 6 5 4 3 4 7 8 8 8 7 6 7 6 8 11 13 13 12 12 11 11 10 12 10 10 10
2 1 1 1 2 2 0 1 -0 2 5 7 5 6 5 6 6 5 5 3 2 3 5 7 11 11 10 10 9 6 7 6 9 10 16 16 11 9 8 8 12 9 9 9
1 1 1 1 1 1 0 0 -2 2 5 3 3 6 6 4 5 6 5 5 5 4 7 9 11 12 9 11 12 11 9 9 11 11 12 12 8 7 6 13 12 7 7 7
2 1 1 1 1 1 0 0 -2 1 4 3 2 2 4 4 4 7 5 6 5 6 8 9 9 10 9 9 10 10 11 12 11 11 13 17 6 7 11 7 5 5 5 6
2 1 1 0 1 1 0 1 -2 -1 2 3 1 1 1 1 2 4 3 6 6 6 7 6 6 8 7 10 12 7 11 10 11 11 11 6 5 5 4 4 5 5 4 4
2 1 0 0 1 1 -0 0 -0 -1 2 3 2 3 1 -1 -0 -0 6 4 4 4 4 6 6 10 7 12 11 10 7 6 8 8 7 6 5 4 3 3 4 4 4 4
2 1 1 0 0 1 -0 0 -1 -0 1 5 4 0 1 -0 -1 0 1 2 1 2 2 4 6 9 6 9 9 9 7 6 8 8 6 5 4 4 4 4 3 4 3 3
2 1 0 0 0 1 -2 -1 -1 -1 2 5 4 1 1 0 0 1 1 1 3 3 4 6 8 5 7 7 7 8 5 7 9 9 5 5 5 3 3 3 3 3 3 3
1 1 1 1 1 2 -0 2 -1 -2 -1 3 5 2 2 1 1 2 2 2 2 3 4 5 5 4 6 7 9 6 5 4 4 5 3 3 3 2 2 3 3 2 2 2
2 1 1 1 1 -1 1 3 1 0 -1 3 5 4 2 1 2 1 2 1 2 3 3 5 4 4 4 7 11 6 4 3 3 3 3 4 3 4 2 2 2 2 2 2
2 2 2 1 2 2 1 -1 0 -0 1 1 5 6 4 2 4 4 2 3 2 4 4 3 5 4 5 11 6 4 4 3 3 3 2 3 2 2 2 2 2 3 3 2
2 2 1 -1 -0 1 1 1 -0 -2 1 4 4 8 9 2 4 3 3 3 6 3 6 5 5 7 11 7 5 5 4 4 4 3 3 3 3 3 3 3 3 3 3 3
2 -0 1 2 1 1 -0 1 1 2 1 2 5 3 7 4 5 5 5 4 6 8 7 3 9 11 5 4 4 3 3 3 3 4 5 4 4 4 3 3 2 2 2 2
-0 2 2 -0 -0 0 1 4 5 4 5 3 4 4 6 2 7 7 4 6 6 9 8 7 7 9 6 4 3 3 2 2 2 2 2 2 2 3 3 3 2 2 2 2
2 2 1 -0 1 3 5 6 4 6 7 4 6 5 4 3 3 6 4 8 6 11 4 6 12 6 5 4 4 3 3 2 3 2 3 2 2 2 2 2 2 2 1 1
-0 1 4 4 4 10 9 10 7 8 5 4 5 6 4 3 4 5 6 9 9 4 7 11 8 5 4 3 3 3 2 2 2 2 2 2 2 1 2 1 1 1 1 1
3 6 11 7 8 6 6 6 6 4 4 4 4 5 5 3 6 5 9 6 6 8 12 12 5 4 3 2 2 3 3 2 2 2 2 2 2 1 1 1 1 1 1 1
5 5 10 7 5 4 3 3 4 2 3 4 5 5 5 5 7 5 7 9 10 10 10 6 4 3 3 2 2 2 2 1 2 2 2 2 2 1 1 1 1 1 1 1
4 5 7 4 6 5 4 4 4 2 3 3 4 6 7 7 7 9 9 10 11 7 5 4 3 3 3 2 2 2 1 2 1 1 1 1 2 2 1 1 1 1 1 1
5 5 4 4 5 5 5 4 3 2 4 6 5 9 9 5 8 9 6 8 6 4 3 2 2 3 3 2 2 2 1 1 1 1 1 1 1 1 1 2 1 1 0 0